Date,TemperatureHighF,TemperatureAvgF,TemperatureLowF,DewpointHighF,DewpointAvgF,DewpointLowF,HumidityHigh,HumidityAvg,HumidityLow,PressureMaxIn,PressureMinIn,WindSpeedMaxMPH,WindSpeedAvgMPH,GustSpeedMaxMPH,PrecipitationSumIn
2013-3-1,31,27,24,32,32,32,65,47,33,28.62,28.47,0,0,0,0.00
2013-3-2,33,26,23,32,32,32,55,43,25,28.59,28.56,0,0,0,0.00
2013-3-3,32,24,20,32,32,32,53,42,28,28.62,28.56,0,0,0,0.00
2013-3-4,56,26,8,32,32,32,50,32,17,28.71,28.62,0,0,0,0.00
2013-3-5,57,32,15,32,32,32,54,29,17,28.71,28.29,0,0,0,0.00
2013-3-6,59,38,29,32,32,32,50,26,17,28.77,28.29,0,0,0,0.00
2013-3-7,39,33,29,32,32,32,55,47,30,28.94,28.77,0,0,0,0.00
2013-3-8,37,29,23,32,32,32,69,45,30,29.06,28.94,0,0,0,0.00
2013-3-9,61,41,20,32,32,32,56,31,17,29.03,28.71,0,0,0,0.00
2013-3-10,73,58,47,32,32,32,19,17,14,28.71,28.50,0,0,0,0.00
2013-3-11,60,50,39,39,33,32,78,46,17,28.50,28.20,0,0,0,0.00
2013-3-12,39,35,30,32,32,32,57,41,30,28.59,28.38,0,0,0,0.00
2013-3-13,40,30,26,32,32,32,45,33,22,28.77,28.50,0,0,0,0.00
2013-3-14,52,32,21,32,32,32,39,26,19,28.83,28.71,0,0,0,0.00
2013-3-15,46,36,28,32,32,32,65,32,20,28.71,28.47,0,0,0,0.00
2013-3-16,36,32,28,32,32,32,86,72,56,28.62,28.29,0,0,0,0.00
2013-3-17,38,30,25,32,32,32,71,42,21,28.80,28.62,0,0,0,0.00
2013-3-18,44,33,25,45,34,32,98,67,30,28.77,28.20,0,0,0,0.00
2013-3-19,39,30,26,39,32,32,98,39,23,28.56,28.29,0,0,0,0.00
2013-3-20,41,27,19,32,32,32,39,29,20,28.56,28.47,0,0,0,0.00
2013-3-21,40,24,14,32,32,32,48,34,21,28.50,28.44,0,0,0,0.00
2013-3-22,37,28,23,32,32,32,49,37,22,28.62,28.50,0,0,0,0.00
2013-3-23,62,32,16,32,32,32,56,34,16,28.68,28.59,0,0,0,0.00
2013-3-24,38,31,24,32,32,32,47,31,21,28.62,28.35,0,0,0,0.00
2013-3-25,37,35,30,32,32,32,81,46,22,28.44,28.09,0,0,0,0.00
2013-3-26,43,34,30,32,32,32,96,69,29,28.71,28.44,0,0,0,0.00
2013-3-27,57,39,31,32,32,32,80,46,19,28.77,28.68,0,0,0,0.00
2013-3-28,50,39,33,32,32,32,40,27,19,28.85,28.77,0,0,0,0.00
2013-3-29,72,45,29,32,32,32,40,24,14,28.88,28.83,0,0,0,0.00
2013-3-30,60,28,23,32,32,32,42,35,17,28.83,28.83,0,0,0,0.00